Regional Weather Roundup
Issued by NWS

Home | Current Version | Previous Version | Text Only | Print | Product List | Glossary Off
Versions: 1 2 3 4 5 6 7 8 9 10 11 12 13 14 15 16 17 18 19 20 21 22 23 24 25 26 27 28 29 30 31 32 33 34 35 36 37 38 39 40 41 42 43 44 45 46 47 48 49 50

000
ASUS43 KLSX 201959
RWRMO

WEATHER SUMMARY FOR MISSOURI
NATIONAL WEATHER SERVICE SPRINGFIELD MO
300 PM CDT SAT SEP 20 2014

NOTE: "FAIR" INDICATES FEW OR NO CLOUDS BELOW 12,000 FEET WITH NO
       SIGNIFICANT WEATHER AND/OR OBSTRUCTIONS TO VISIBILITY.
       CURRENT SKY AND/OR WEATHER CONDITIONS ARE NOT AVAILABLE FOR
       CHILLICOTHE AND FARMINGTON.

MOZ001>031-035>038-043-044-053-054-202100-
...NORTHERN AND WESTERN MISSOURI...

CITY           SKY/WX    TMP DP  RH WIND       PRES   REMARKS
KANSAS CTY INT CLOUDY    78  71  79 S9        29.92F
KANSAS C DTWN  CLOUDY    83  70  64 SW9       29.91F
LEE`S SUMMIT   PTSUNNY   81  69  67 W8        29.95R
ST JOSEPH      CLOUDY    80  71  74 SW9       29.92R
KIRKSVILLE     CLOUDY    76  70  82 W6        29.94F

$$
MOZ066>068-077>081-088>096-101>105-202100-
...SOUTHWEST MISSOURI...

CITY           SKY/WX    TMP DP  RH WIND       PRES   REMARKS
SPRINGFIELD    MOSUNNY   84  68  58 SW13      30.01F
JOPLIN         MOSUNNY   83  70  64 SW12      30.01F

$$
MOZ032>034-039>042-045>050-055>058-069>072-202100-
...CENTRAL MISSOURI...

CITY           SKY/WX    TMP DP  RH WIND       PRES   REMARKS
COLUMBIA       PTSUNNY   83  68  60 SW13      29.96R
JEFFERSON CITY MOSUNNY   87  66  49 SW12      29.93F
ROLLA          MOSUNNY   83  67  58 SW9       29.96F
SEDALIA        PTSUNNY   82  69  64 W9G20     29.97R
OSAGE BEACH    MOSUNNY   84  66  54 SW12G17   29.96F

$$
MOZ051-052-059>065-202100-
...EAST CENTRAL MISSOURI...

CITY           SKY/WX    TMP DP  RH WIND       PRES   REMARKS
ST LOUIS INTL  CLOUDY    85  69  58 SW12      29.93F
SPIRIT OF STL  CLOUDY    84  69  60 SW8       29.92F
ST CHARLES     CLOUDY    85  67  54 SW13      29.91F

$$
MOZ072>076-082>087-097>100-106>115-202100-
...SOUTH CENTRAL AND SOUTHEAST MISSOURI...

CITY           SKY/WX    TMP DP  RH WIND       PRES   REMARKS
CAPE GIRARDEAU MOSUNNY   84  67  56 W5        29.99F
FARMINGTON     MOSUNNY   84  66  54 SW14      30.01F
POPLAR BLUFF   MOSUNNY   86  66  51 SW8       29.98F
WEST PLAINS    MOSUNNY   83  67  58 VRB7      30.04F

$$


USA.gov is the U.S. government's official web portal to all federal, state and local government web resources and services.